LNR49J LPPT-LEMD

Flight info

Callsign LNR49J
Flight time 0h 58m
Altitude 30000
Route ORVED DCT OGERO DCT ROLDO Z409 TLD
Aircraft B789/H-SDE1E2E3FGHIJ2J3J4J5M1RWXY/LB1D1

Departure

Time 2026-05-05 19:42
Airport Lisbon Humberto Delgado Airport (LPPT)

Arrival

Time 2026-05-05 20:40
Airport Adolfo Suárez Madrid–Barajas Airport (LEMD)
Time Latitude Longitude Altitude Speed Heading
2026-05-05 19:13 38.77549 -9.13185 343 ft 0 kts 78°
2026-05-05 19:22 38.77545 -9.13204 357 ft 4 kts 78°
2026-05-05 19:22 38.77540 -9.13238 354 ft 4 kts 79°
2026-05-05 19:22 38.77538 -9.13272 354 ft 4 kts 101°
2026-05-05 19:23 38.77548 -9.13302 352 ft 4 kts 139°
2026-05-05 19:23 38.77568 -9.13316 355 ft 2 kts 168°
2026-05-05 19:23 38.77574 -9.13318 355 ft 0 kts 168°
2026-05-05 19:28 38.77570 -9.13317 344 ft 2 kts 168°
2026-05-05 19:28 38.77547 -9.13311 346 ft 5 kts 168°
2026-05-05 19:28 38.77506 -9.13300 354 ft 7 kts 169°
2026-05-05 19:29 38.77450 -9.13286 344 ft 9 kts 168°
2026-05-05 19:29 38.77388 -9.13270 351 ft 7 kts 169°
2026-05-05 19:29 38.77387 -9.13269 351 ft 0 kts 169°
2026-05-05 19:32 38.77384 -9.13269 352 ft 1 kts 169°
2026-05-05 19:33 38.77370 -9.13269 351 ft 2 kts 187°
2026-05-05 19:33 38.77358 -9.13278 349 ft 2 kts 210°
2026-05-05 19:33 38.77345 -9.13295 356 ft 3 kts 229°
2026-05-05 19:33 38.77330 -9.13318 354 ft 3 kts 229°
2026-05-05 19:34 38.77312 -9.13341 352 ft 6 kts 221°
2026-05-05 19:34 38.77262 -9.13357 353 ft 10 kts 176°
2026-05-05 19:34 38.77178 -9.13338 353 ft 15 kts 168°
2026-05-05 19:35 38.76944 -9.13276 352 ft 18 kts 168°
2026-05-05 19:35 38.76829 -9.13247 346 ft 16 kts 172°
2026-05-05 19:35 38.76770 -9.13276 357 ft 7 kts 225°
2026-05-05 19:35 38.76753 -9.13332 354 ft 6 kts 258°
2026-05-05 19:36 38.76736 -9.13379 357 ft 5 kts 234°
2026-05-05 19:36 38.76710 -9.13411 355 ft 5 kts 221°
2026-05-05 19:36 38.76679 -9.13443 358 ft 6 kts 221°
2026-05-05 19:36 38.76657 -9.13490 358 ft 6 kts 249°
2026-05-05 19:37 38.76644 -9.13553 358 ft 8 kts 257°
2026-05-05 19:37 38.76632 -9.13628 355 ft 9 kts 258°
2026-05-05 19:37 38.76618 -9.13714 358 ft 10 kts 258°
2026-05-05 19:37 38.76602 -9.13812 356 ft 12 kts 258°
2026-05-05 19:38 38.76585 -9.13914 359 ft 9 kts 258°
2026-05-05 19:38 38.76565 -9.13994 361 ft 10 kts 243°
2026-05-05 19:38 38.76524 -9.14065 356 ft 10 kts 234°
2026-05-05 19:38 38.76500 -9.14158 359 ft 13 kts 272°
2026-05-05 19:39 38.76513 -9.14223 353 ft 0 kts 289°
2026-05-05 19:40 38.76519 -9.14243 349 ft 7 kts 291°
2026-05-05 19:40 38.76545 -9.14320 351 ft 12 kts 294°
2026-05-05 19:40 38.76602 -9.14391 351 ft 11 kts 351°
2026-05-05 19:40 38.76672 -9.14372 351 ft 10 kts 20°
2026-05-05 19:41 38.76685 -9.14365 354 ft 0 kts 22°
2026-05-05 19:41 38.76694 -9.14360 349 ft 10 kts 22°
2026-05-05 19:41 38.77004 -9.14199 361 ft 92 kts 22°
2026-05-05 19:41 38.77850 -9.13739 374 ft 170 kts 22°
2026-05-05 19:42 38.78951 -9.12948 1541 ft 170 kts 31°
2026-05-05 19:42 38.79883 -9.12062 2977 ft 174 kts 32°
2026-05-05 19:42 38.80945 -9.11333 4070 ft 168 kts 16°
2026-05-05 19:42 38.82079 -9.10839 5125 ft 171 kts 22°
2026-05-05 19:43 38.83095 -9.09982 6114 ft 180 kts 33°
2026-05-05 19:43 38.84217 -9.09137 6799 ft 189 kts 23°
2026-05-05 19:43 38.85398 -9.08383 7391 ft 197 kts 24°
2026-05-05 19:43 38.86655 -9.07493 8011 ft 222 kts 31°
2026-05-05 19:44 38.87614 -9.05788 8614 ft 251 kts 59°
2026-05-05 19:44 38.88435 -9.03663 9243 ft 272 kts 59°
2026-05-05 19:44 38.89317 -9.01483 9884 ft 279 kts 58°
2026-05-05 19:44 38.90273 -8.99226 10358 ft 303 kts 57°
2026-05-05 19:45 38.91317 -8.96764 10942 ft 331 kts 58°
2026-05-05 19:45 38.92436 -8.94064 11759 ft 348 kts 59°
2026-05-05 19:45 38.93587 -8.91273 12960 ft 355 kts 59°
2026-05-05 19:45 38.94751 -8.88477 14042 ft 363 kts 58°
2026-05-05 19:46 38.95957 -8.85589 15052 ft 370 kts 59°
2026-05-05 19:46 38.97186 -8.82629 16056 ft 377 kts 59°
2026-05-05 19:46 38.98431 -8.79624 17039 ft 384 kts 59°
2026-05-05 19:46 38.99701 -8.76559 18009 ft 391 kts 59°
2026-05-05 19:47 39.00993 -8.73441 18889 ft 398 kts 59°
2026-05-05 19:47 39.02300 -8.70280 19718 ft 404 kts 59°
2026-05-05 19:47 39.03616 -8.67094 20498 ft 411 kts 59°
2026-05-05 19:47 39.04967 -8.63821 21275 ft 417 kts 59°
2026-05-05 19:48 39.06320 -8.60498 22058 ft 423 kts 62°
2026-05-05 19:48 39.07561 -8.57027 22789 ft 429 kts 62°
2026-05-05 19:48 39.08870 -8.53559 23517 ft 434 kts 62°
2026-05-05 19:48 39.10195 -8.50032 24152 ft 439 kts 62°
2026-05-05 19:49 39.11499 -8.46452 24734 ft 444 kts 63°
2026-05-05 19:49 39.12370 -8.44048 25163 ft 445 kts 63°
2026-05-05 19:49 39.14122 -8.39270 26205 ft 444 kts 62°
2026-05-05 19:49 39.15446 -8.35680 26951 ft 444 kts 62°
2026-05-05 19:50 39.16764 -8.32078 27652 ft 445 kts 63°
2026-05-05 19:50 39.18083 -8.28455 28376 ft 446 kts 63°
2026-05-05 19:50 39.19400 -8.24844 29127 ft 445 kts 63°
2026-05-05 19:50 39.20722 -8.21226 29842 ft 446 kts 63°
2026-05-05 19:51 39.22063 -8.17547 29941 ft 457 kts 63°
2026-05-05 19:51 39.24722 -8.10219 29959 ft 445 kts 63°
2026-05-05 19:52 39.27333 -8.03024 29956 ft 444 kts 63°
2026-05-05 19:52 39.29573 -7.95570 29967 ft 447 kts 67°
2026-05-05 19:53 39.31772 -7.88059 29962 ft 447 kts 68°
2026-05-05 19:53 39.33926 -7.80538 29963 ft 445 kts 68°
2026-05-05 19:54 39.36073 -7.73093 29958 ft 445 kts 68°
2026-05-05 19:54 39.38227 -7.65577 29978 ft 446 kts 66°
2026-05-05 19:55 39.40723 -7.58233 30028 ft 447 kts 64°
2026-05-05 19:55 39.43212 -7.50864 30031 ft 446 kts 64°
2026-05-05 19:56 39.45717 -7.43522 30019 ft 445 kts 64°
2026-05-05 19:56 39.48184 -7.36219 30018 ft 445 kts 64°
2026-05-05 19:57 39.50668 -7.28874 30012 ft 445 kts 64°
2026-05-05 19:57 39.53146 -7.21515 30027 ft 445 kts 64°
2026-05-05 19:58 39.55638 -7.14105 30012 ft 448 kts 64°
2026-05-05 19:58 39.58102 -7.06750 30012 ft 447 kts 64°
2026-05-05 19:59 39.60579 -6.99344 30011 ft 446 kts 64°
2026-05-05 19:59 39.63029 -6.91995 30000 ft 446 kts 64°
2026-05-05 20:00 39.65499 -6.84570 29998 ft 447 kts 64°
2026-05-05 20:00 39.67959 -6.77156 30003 ft 450 kts 64°
2026-05-05 20:01 39.70434 -6.69672 29990 ft 450 kts 64°
2026-05-05 20:01 39.72888 -6.62236 29980 ft 449 kts 64°
2026-05-05 20:02 39.74933 -6.56023 29989 ft 448 kts 64°
2026-05-05 20:02 39.77778 -6.47357 29986 ft 449 kts 64°
2026-05-05 20:03 39.79781 -6.41089 29993 ft 452 kts 70°
2026-05-05 20:03 39.80566 -6.35736 29972 ft 454 kts 82°
2026-05-05 20:03 39.80823 -6.32979 29974 ft 455 kts 82°
2026-05-05 20:04 39.81523 -6.24856 29983 ft 455 kts 83°
2026-05-05 20:04 39.82261 -6.16680 29988 ft 454 kts 82°
2026-05-05 20:05 39.82975 -6.08501 29995 ft 455 kts 83°
2026-05-05 20:05 39.83693 -6.00304 29981 ft 456 kts 83°
2026-05-05 20:06 39.84403 -5.92099 29976 ft 456 kts 83°
2026-05-05 20:06 39.85091 -5.84082 29966 ft 457 kts 83°
2026-05-05 20:07 39.85608 -5.78024 29968 ft 457 kts 83°
2026-05-05 20:07 39.85703 -5.76895 29965 ft 456 kts 83°
2026-05-05 20:08 39.86254 -5.70379 29970 ft 456 kts 83°
2026-05-05 20:08 39.86942 -5.62188 29963 ft 458 kts 83°
2026-05-05 20:09 39.87628 -5.53943 29975 ft 457 kts 83°
2026-05-05 20:09 39.88221 -5.46756 29969 ft 457 kts 83°
2026-05-05 20:10 39.88896 -5.38526 29975 ft 457 kts 83°
2026-05-05 20:10 39.89519 -5.30853 29966 ft 458 kts 83°
2026-05-05 20:11 39.90097 -5.23677 29967 ft 459 kts 83°
2026-05-05 20:11 39.90351 -5.20499 29973 ft 459 kts 83°
2026-05-05 20:12 39.90799 -5.14886 29977 ft 459 kts 83°
2026-05-05 20:12 39.91452 -5.06628 29972 ft 458 kts 83°
2026-05-05 20:13 39.92096 -4.98413 29319 ft 456 kts 83°
2026-05-05 20:13 39.92339 -4.95289 28904 ft 454 kts 83°
2026-05-05 20:13 39.92566 -4.92361 28484 ft 452 kts 83°
2026-05-05 20:13 39.92792 -4.89434 28100 ft 451 kts 83°
2026-05-05 20:14 39.93115 -4.85251 27517 ft 449 kts 83°
2026-05-05 20:14 39.93390 -4.81672 27029 ft 447 kts 83°
2026-05-05 20:14 39.93613 -4.78749 26621 ft 445 kts 83°
2026-05-05 20:14 39.93822 -4.76005 26259 ft 444 kts 83°
2026-05-05 20:15 39.94124 -4.72015 25720 ft 441 kts 83°
2026-05-05 20:15 39.94425 -4.68038 25183 ft 439 kts 83°
2026-05-05 20:15 39.94722 -4.64091 24651 ft 437 kts 83°
2026-05-05 20:15 39.95016 -4.60160 24123 ft 434 kts 83°
2026-05-05 20:16 39.95307 -4.56244 23598 ft 432 kts 83°
2026-05-05 20:16 39.95593 -4.52348 23029 ft 430 kts 83°
2026-05-05 20:16 39.95875 -4.48500 22519 ft 425 kts 83°
2026-05-05 20:16 39.96150 -4.44747 22018 ft 420 kts 83°
2026-05-05 20:17 39.96428 -4.40923 21514 ft 415 kts 83°
2026-05-05 20:17 39.96571 -4.37196 21018 ft 410 kts 94°
2026-05-05 20:17 39.96012 -4.33584 20537 ft 404 kts 111°
2026-05-05 20:17 39.94789 -4.30387 20026 ft 396 kts 127°
2026-05-05 20:18 39.93109 -4.27574 19533 ft 391 kts 131°
2026-05-05 20:18 39.91403 -4.24832 19020 ft 388 kts 132°
2026-05-05 20:18 39.89673 -4.22090 18501 ft 385 kts 132°
2026-05-05 20:18 39.88005 -4.19435 17979 ft 382 kts 131°
2026-05-05 20:19 39.86342 -4.16766 17465 ft 377 kts 131°
2026-05-05 20:19 39.84705 -4.14135 16979 ft 371 kts 129°
2026-05-05 20:19 39.83469 -4.11217 16500 ft 368 kts 108°
2026-05-05 20:19 39.82922 -4.07996 16014 ft 362 kts 100°
2026-05-05 20:20 39.82503 -4.04793 15538 ft 357 kts 99°
2026-05-05 20:20 39.82114 -4.01620 15074 ft 352 kts 99°
2026-05-05 20:20 39.81713 -3.98500 14612 ft 347 kts 99°
2026-05-05 20:20 39.81648 -3.95409 14169 ft 341 kts 79°
2026-05-05 20:21 39.82437 -3.92573 13987 ft 328 kts 57°
2026-05-05 20:21 39.83866 -3.90289 14008 ft 328 kts 43°
2026-05-05 20:21 39.85467 -3.88128 13993 ft 333 kts 43°
2026-05-05 20:21 39.87093 -3.85981 13988 ft 334 kts 43°
2026-05-05 20:22 39.88721 -3.83834 13976 ft 334 kts 43°
2026-05-05 20:22 39.90347 -3.81670 13991 ft 334 kts 43°
2026-05-05 20:22 39.91972 -3.79501 13994 ft 334 kts 43°
2026-05-05 20:22 39.93600 -3.77333 13989 ft 335 kts 43°
2026-05-05 20:23 39.95229 -3.75163 13992 ft 335 kts 43°
2026-05-05 20:23 39.96858 -3.72990 13971 ft 335 kts 43°
2026-05-05 20:23 39.98489 -3.70815 13628 ft 335 kts 44°
2026-05-05 20:23 40.00096 -3.68665 13237 ft 327 kts 44°
2026-05-05 20:24 40.01676 -3.66551 12884 ft 323 kts 44°
2026-05-05 20:24 40.03218 -3.64490 12553 ft 321 kts 44°
2026-05-05 20:24 40.04776 -3.62405 12223 ft 319 kts 44°
2026-05-05 20:24 40.06326 -3.60329 11892 ft 318 kts 44°
2026-05-05 20:25 40.07865 -3.58265 11559 ft 315 kts 44°
2026-05-05 20:25 40.09367 -3.56248 11240 ft 306 kts 44°
2026-05-05 20:25 40.10838 -3.54274 10909 ft 301 kts 44°
2026-05-05 20:25 40.12297 -3.52316 10585 ft 299 kts 44°
2026-05-05 20:26 40.13744 -3.50370 10258 ft 298 kts 44°
2026-05-05 20:26 40.15181 -3.48438 9950 ft 296 kts 44°
2026-05-05 20:26 40.16608 -3.46503 9615 ft 294 kts 46°
2026-05-05 20:26 40.17729 -3.44279 9299 ft 294 kts 59°
2026-05-05 20:27 40.18728 -3.41961 8971 ft 292 kts 63°
2026-05-05 20:27 40.19266 -3.39388 8488 ft 297 kts 84°
2026-05-05 20:27 40.19093 -3.36703 7877 ft 299 kts 104°
2026-05-05 20:27 40.18325 -3.34199 7436 ft 293 kts 117°
2026-05-05 20:28 40.17359 -3.31908 7182 ft 282 kts 120°
2026-05-05 20:28 40.16375 -3.29719 7027 ft 278 kts 120°
2026-05-05 20:28 40.15385 -3.27556 6897 ft 276 kts 120°
2026-05-05 20:28 40.14398 -3.25411 6777 ft 276 kts 120°
2026-05-05 20:29 40.13430 -3.23282 6738 ft 265 kts 117°
2026-05-05 20:29 40.13116 -3.21029 6668 ft 252 kts 77°
2026-05-05 20:29 40.13892 -3.18986 6669 ft 252 kts 49°
2026-05-05 20:29 40.15194 -3.17499 6667 ft 249 kts 27°
2026-05-05 20:30 40.16799 -3.16776 6663 ft 236 kts
2026-05-05 20:30 40.18349 -3.16884 6624 ft 216 kts 344°
2026-05-05 20:30 40.19697 -3.17654 6681 ft 207 kts 328°
2026-05-05 20:30 40.20882 -3.18618 6731 ft 203 kts 327°
2026-05-05 20:31 40.22119 -3.19575 6772 ft 208 kts 329°
2026-05-05 20:31 40.23384 -3.20511 6791 ft 210 kts 329°
2026-05-05 20:31 40.24629 -3.21429 6820 ft 194 kts 329°
2026-05-05 20:31 40.25729 -3.22247 6827 ft 194 kts 329°
2026-05-05 20:32 40.26849 -3.23351 6780 ft 198 kts 307°
2026-05-05 20:32 40.27331 -3.24936 6741 ft 180 kts 282°
2026-05-05 20:32 40.27533 -3.26548 6746 ft 186 kts 281°
2026-05-05 20:32 40.27746 -3.28219 6746 ft 187 kts 281°
2026-05-05 20:33 40.27965 -3.29885 6600 ft 183 kts 281°
2026-05-05 20:33 40.28185 -3.31553 6447 ft 189 kts 282°
2026-05-05 20:33 40.28642 -3.33104 6224 ft 178 kts 309°
2026-05-05 20:33 40.29455 -3.34331 6113 ft 182 kts 307°
2026-05-05 20:34 40.30137 -3.35732 6006 ft 183 kts 306°
2026-05-05 20:34 40.30998 -3.36951 5902 ft 178 kts 320°
2026-05-05 20:34 40.31925 -3.37945 5780 ft 173 kts 322°
2026-05-05 20:34 40.32873 -3.38920 5554 ft 170 kts 323°
2026-05-05 20:35 40.33777 -3.39838 5330 ft 160 kts 322°
2026-05-05 20:35 40.34629 -3.40705 5102 ft 152 kts 322°
2026-05-05 20:35 40.35453 -3.41544 4924 ft 150 kts 323°
2026-05-05 20:35 40.36276 -3.42380 4723 ft 149 kts 323°
2026-05-05 20:36 40.37075 -3.43194 4526 ft 143 kts 323°
2026-05-05 20:36 40.37850 -3.43979 4341 ft 138 kts 323°
2026-05-05 20:36 40.38615 -3.44750 4148 ft 140 kts 323°
2026-05-05 20:36 40.39381 -3.45525 3958 ft 138 kts 322°
2026-05-05 20:37 40.40145 -3.46305 3788 ft 139 kts 323°
2026-05-05 20:37 40.40652 -3.46819 3658 ft 138 kts 323°
2026-05-05 20:37 40.41665 -3.47847 3421 ft 140 kts 323°
2026-05-05 20:37 40.42432 -3.48621 3174 ft 140 kts 323°
2026-05-05 20:38 40.43225 -3.49428 2991 ft 147 kts 321°
2026-05-05 20:38 40.44019 -3.50256 2781 ft 143 kts 321°
2026-05-05 20:38 40.44823 -3.51062 2511 ft 144 kts 323°
2026-05-05 20:38 40.45595 -3.51852 2351 ft 139 kts 321°
2026-05-05 20:39 40.46372 -3.52628 2220 ft 141 kts 322°
2026-05-05 20:39 40.47164 -3.53414 2029 ft 143 kts 320°
2026-05-05 20:39 40.47910 -3.54219 1935 ft 123 kts 320°
2026-05-05 20:39 40.48452 -3.54734 1944 ft 72 kts 321°
2026-05-05 20:40 40.48791 -3.55084 1957 ft 56 kts 322°
2026-05-05 20:40 40.49085 -3.55382 1960 ft 46 kts 322°
2026-05-05 20:40 40.49201 -3.55572 1964 ft 23 kts 299°
2026-05-05 20:40 40.49260 -3.55750 1967 ft 21 kts 292°
2026-05-05 20:41 40.49336 -3.55910 1966 ft 21 kts 318°
2026-05-05 20:41 40.49450 -3.56031 1967 ft 21 kts 324°
2026-05-05 20:41 40.49574 -3.56136 1965 ft 21 kts 347°
2026-05-05 20:41 40.49720 -3.56155 1965 ft 20 kts 335°
2026-05-05 20:42 40.49749 -3.56200 1966 ft 0 kts 303°
2026-05-05 20:42 40.49749 -3.56201 1966 ft 1 kts 303°
2026-05-05 20:43 40.49756 -3.56215 1966 ft 2 kts 301°
2026-05-05 20:43 40.49759 -3.56228 1967 ft 2 kts 290°
2026-05-05 20:43 40.49764 -3.56265 1968 ft 4 kts 278°
2026-05-05 20:43 40.49766 -3.56301 1968 ft 4 kts 273°
2026-05-05 20:44 40.49767 -3.56331 1973 ft 3 kts 271°
2026-05-05 20:44 40.49767 -3.56356 1973 ft 1 kts 271°